SCOUT B DEB, 2498

Orbit data source: Space-Track

SCOUT B DEB, 2498 is space debris in LEO originally from a launch on Fri, 10 Jun 1966 UTC launched from the Wallops Island (WLPIS). Debris objects in space refer to the collection of defunct objects orbiting the Earth. Examples of debris include non-operational satellites, rocket bodies, and fragments generated from explosions, collisions, or faulty payload assembly.

Loading next visibility...
Identifier
2498, 1966-052C
Orbit
LEO
Country
Flag of USUS
Related business
Manufacturer
Unknown
Mission
Spacecraft
Bus & Motor
Unknown
Mass
Unknown
Launch date (UTC)
1966-06-10 (60 years ago)
Launch vehicle
Unknown
Launch site
Wallops Island (WLPIS)
Object type
Payload
Rocket body
Debris
Shape & HBR
Unknown shape, 0.1 m
Radar Cross Section
Small (<0.1 m²)

Expand to show TLE details & history
Last TLE update: 2 days ago

TLE from 2 days ago
0 SCOUT B DEB
1 02498U 66052C   25340.62936865  .00000353  00000-0  33950-3 0  9995
2 02498  40.6312 310.3829 2068002 169.9117 195.0679 10.56286339456509
Epoch: 2025-12-06T15:06Z
TLE epoch observation values (Epoch: 2025-12-06T15:06:17.451Z)
Latitude
Longitude
8.15583°
Altitude
4,167.138 km
Speed
5.495 km/s
True Right ascension
20h 41m 31s
True Declination
0° 00' 00"
Sunlit
Object was in daylight at epoch
Visualization orbit readout
Latitude
Unknown
Longitude
Unknown
Altitude
Unknown
Speed
Unknown
Apparent Right ascension
Unknown
Apparent Declination
Unknown
Sunlit
N/A
Visualization observer readout
Local Sidereal Time
23:16:29
Azimuth
Unknown
Elevation
Unknown
Doppler factor
Unknown
Orbital elements
Apogee altitude
4,213.089 km
Perigee altitude
583.213 km
Semi-major axis
8,776.288 km
Eccentricity
0.2068
Inclination
40.6312°
RAAN
310.3829°
Arg. of periapsis
169.9117°
True anomaly
190.15011°
Mean anomaly
195.0679°
Eccentric anomaly
192.50279°
Mean motion
2.63984 °/min
Orbital period
136.37 mins
BSTAR
0.0003395
Loading maneuver chart data...
Computing Atmospheric mass density...
Loading historical data...
Loading historical data...
Loading historical data...
Loading historical data...
Loading historical data...
Loading historical data...
Loading historical data...
Other satellites on launch #52 in the year 1966 (1966-06-10 UTC)

Documentation

Showing up to 5 results
|